Newcastle, WY

2:05 PM MST on December 11, 2019 (GMT -0700)
Mondell

Weather History for KECS - October, 2019

Change the Weather History Date:

Tuesday, October 29, 2019

  Actual Average (KCUT) Record (KCUT)
Temperature  
Mean Temperature 9 °F 39 °F  
Max Temperature 17 °F 50 °F 72 °F (1990)
Min Temperature 1 °F 28 °F 4 °F (1991)
Degree Days  
Heating Degree Days 56 26  
Month to date heating degree days 640  
Since 1 July heating degree days 1126  
Cooling Degree Days 0 0  
Month to date cooling degree days 0  
Year to date cooling degree days 177  
Moisture  
Dew Point 1 °F    
Average Humidity 63    
Maximum Humidity 85    
Minimum Humidity 49    
Precipitation  
Precipitation 0.00 in 0.02 in 0.72 in (1961)
Month to date precipitation 1.43  
Year to date precipitation 17.92  
Sea Level Pressure  
Sea Level Pressure 30.25 in    
Wind  
Wind Speed 17 mph (NNW)    
Max Wind Speed 25 mph    
Max Gust Speed 33 mph    
Visibility 10 miles    
Events      
T = Trace of Precipitation, MM = Missing Value Source: NWS Daily Summary

Daily Weather History Graph

Daily Weather History Graph

Search for Another Location

Airport or City:

Astronomy

Oct. 29, 2019 Rise Set
Actual Time 7:29 AM MDT 5:51 PM MDT
Civil Twilight 6:59 AM MDT 6:21 PM MDT
Nautical Twilight 6:25 AM MDT 6:55 PM MDT
Astronomical Twilight 5:52 AM MDT 7:28 PM MDT
Moon 9:07 AM MDT (10/29) 7:15 PM MDT (10/29)
Length of Visible Light 11h 22m
Length of Day
10h 22m
Waxing Crescent, 3% of the Moon is Illuminated
Oct 29
Waxing Crescent
Nov 4
First Quarter
Nov 12
Full
Nov 19
Last Quarter
Nov 26
New

Hourly Weather History & Observations

Time (MDT) Temp. Windchill Dew Point Humidity Pressure Visibility Wind Dir Wind Speed Gust Speed Precip Events Conditions
12:15 AM 14.0 °F -5.5 °F 3.2 °F 62% 30.11 in 10.0 mi North 25.3 mph 31.1 mph N/A   Overcast
12:35 AM 14.0 °F -5.1 °F 5.0 °F 67% 30.12 in 10.0 mi North 24.2 mph 29.9 mph N/A   Overcast
12:55 AM 12.2 °F -7.1 °F 3.2 °F 67% 30.12 in 10.0 mi North 23.0 mph 33.4 mph N/A   Mostly Cloudy
1:15 AM 12.2 °F -7.1 °F 3.2 °F 67% 30.12 in 10.0 mi North 23.0 mph 31.1 mph N/A   Mostly Cloudy
1:35 AM 12.2 °F -5.3 °F 1.4 °F 62% 30.13 in 10.0 mi North 18.4 mph 32.2 mph N/A   Overcast
1:55 AM 12.2 °F -7.9 °F 1.4 °F 62% 30.13 in 10.0 mi NNW 25.3 mph 31.1 mph N/A   Overcast
2:15 AM 12.2 °F -7.1 °F 1.4 °F 62% 30.14 in 10.0 mi North 23.0 mph 33.4 mph N/A   Overcast
2:35 AM 12.2 °F -7.9 °F 1.4 °F 62% 30.14 in 10.0 mi NNW 25.3 mph 32.2 mph N/A   Overcast
2:55 AM 10.4 °F -9.1 °F 1.4 °F 67% 30.15 in 10.0 mi North 21.9 mph 28.8 mph N/A   Overcast
3:15 AM 10.4 °F -8.2 °F 1.4 °F 67% 30.16 in 10.0 mi North 19.6 mph 26.5 mph N/A   Overcast
3:35 AM 10.4 °F -9.1 °F -0.4 °F 62% 30.17 in 10.0 mi NNW 21.9 mph 28.8 mph N/A   Overcast
3:55 AM 10.4 °F -9.1 °F -0.4 °F 62% 30.17 in 10.0 mi North 21.9 mph 28.8 mph N/A   Overcast
4:15 AM 10.4 °F -8.6 °F -0.4 °F 62% 30.17 in 10.0 mi North 20.7 mph 27.6 mph N/A   Overcast
4:35 AM 10.4 °F -6.6 °F -0.4 °F 62% 30.18 in 10.0 mi North 16.1 mph 29.9 mph N/A   Overcast
4:55 AM 10.4 °F -7.7 °F -0.4 °F 62% 30.19 in 10.0 mi NNW 18.4 mph 25.3 mph N/A   Overcast
5:15 AM 10.4 °F -6.6 °F -0.4 °F 62% 30.19 in 10.0 mi NNW 16.1 mph 24.2 mph N/A   Overcast
5:35 AM 10.4 °F -6.0 °F -0.4 °F 62% 30.20 in 10.0 mi NNW 15.0 mph 20.7 mph N/A   Overcast
5:55 AM 10.4 °F -5.4 °F -0.4 °F 62% 30.20 in 10.0 mi NNW 13.8 mph 21.9 mph N/A   Overcast
6:15 AM 10.4 °F -6.6 °F -0.4 °F 62% 30.21 in 10.0 mi North 16.1 mph 21.9 mph N/A   Overcast
6:35 AM 10.4 °F -4.8 °F -0.4 °F 62% 30.22 in 10.0 mi NNW 12.7 mph 19.6 mph N/A   Overcast
6:55 AM 10.4 °F -3.3 °F -0.4 °F 62% 30.23 in 10.0 mi NNW 10.4 mph 18.4 mph N/A   Overcast
7:15 AM 10.4 °F -0.4 °F -0.4 °F 62% 30.24 in 10.0 mi NNW 6.9 mph - N/A   Overcast
7:35 AM 10.4 °F -0.4 °F -0.4 °F 62% 30.25 in 10.0 mi North 6.9 mph - N/A   Overcast
7:55 AM 10.4 °F -0.4 °F 1.4 °F 67% 30.26 in 10.0 mi NNW 6.9 mph - N/A   Overcast
8:15 AM 10.4 °F -0.4 °F 1.4 °F 67% 30.27 in 10.0 mi NW 6.9 mph - N/A   Overcast
8:35 AM 10.4 °F -1.5 °F 1.4 °F 67% 30.27 in 10.0 mi NNW 8.1 mph - N/A   Overcast
8:55 AM 10.4 °F -2.4 °F 1.4 °F 67% 30.28 in 10.0 mi NW 9.2 mph - N/A   Scattered Clouds
9:35 AM 10.4 °F -5.4 °F 1.4 °F 67% 30.29 in 10.0 mi NW 13.8 mph 18.4 mph N/A   Scattered Clouds
9:55 AM 10.4 °F -5.4 °F 1.4 °F 67% 30.30 in 10.0 mi NW 13.8 mph - N/A   Scattered Clouds
10:15 AM 12.2 °F -3.1 °F 1.4 °F 62% 30.30 in 10.0 mi NW 13.8 mph - N/A   Scattered Clouds
10:35 AM 12.2 °F -2.5 °F 1.4 °F 62% 30.29 in 10.0 mi NNW 12.7 mph 17.3 mph N/A   Mostly Cloudy
10:55 AM 12.2 °F -3.1 °F 1.4 °F 62% 30.29 in 10.0 mi NNW 13.8 mph - N/A   Overcast
11:15 AM 14.0 °F 0.5 °F 1.4 °F 57% 30.29 in 10.0 mi NNW 11.5 mph 18.4 mph N/A   Overcast
11:35 AM 14.0 °F 0.5 °F 1.4 °F 57% 30.30 in 10.0 mi NNW 11.5 mph 17.3 mph N/A   Overcast
11:55 AM 14.0 °F -1.4 °F 1.4 °F 57% 30.30 in 10.0 mi NNW 15.0 mph - N/A   Overcast
12:15 PM 14.0 °F -2.5 °F 1.4 °F 57% 30.30 in 10.0 mi NW 17.3 mph 20.7 mph N/A   Mostly Cloudy
12:35 PM 14.0 °F -1.4 °F 1.4 °F 57% 30.29 in 10.0 mi NW 15.0 mph 21.9 mph N/A   Scattered Clouds
12:55 PM 14.0 °F -0.8 °F 1.4 °F 57% 30.28 in 10.0 mi NW 13.8 mph 19.6 mph N/A   Scattered Clouds
1:15 PM 15.8 °F 2.7 °F 1.4 °F 53% 30.28 in 10.0 mi NW 11.5 mph 23.0 mph N/A   Overcast
1:35 PM 15.8 °F -0.2 °F 1.4 °F 53% 30.28 in 10.0 mi NW 17.3 mph 21.9 mph N/A   Mostly Cloudy
1:55 PM 17.6 °F 3.7 °F 3.2 °F 53% 30.28 in 10.0 mi NNW 13.8 mph 19.6 mph N/A   Mostly Cloudy
2:15 PM 17.6 °F 2.2 °F 3.2 °F 53% 30.27 in 10.0 mi NW 17.3 mph 21.9 mph N/A   Mostly Cloudy
2:35 PM 15.8 °F -0.2 °F 1.4 °F 53% 30.27 in 10.0 mi NNW 17.3 mph 23.0 mph N/A   Overcast
2:55 PM 17.6 °F 2.7 °F 3.2 °F 53% 30.27 in 10.0 mi NNW 16.1 mph 21.9 mph N/A   Mostly Cloudy
3:15 PM 17.6 °F 2.7 °F 1.4 °F 49% 30.26 in 10.0 mi NW 16.1 mph 21.9 mph N/A   Clear
3:35 PM 17.6 °F 3.7 °F 1.4 °F 49% 30.26 in 10.0 mi NW 13.8 mph 21.9 mph N/A   Clear
3:55 PM 17.6 °F 3.2 °F 1.4 °F 49% 30.26 in 10.0 mi NW 15.0 mph 20.7 mph N/A   Clear
4:15 PM 17.6 °F 3.2 °F 1.4 °F 49% 30.27 in 10.0 mi NW 15.0 mph 20.7 mph N/A   Clear
4:35 PM 15.8 °F 0.9 °F 1.4 °F 53% 30.27 in 10.0 mi NW 15.0 mph - N/A   Clear
4:55 PM 14.0 °F -0.2 °F 1.4 °F 57% 30.27 in 10.0 mi NW 12.7 mph - N/A   Clear
5:15 PM 14.0 °F -0.8 °F 1.4 °F 57% 30.27 in 10.0 mi NW 13.8 mph - N/A   Clear
5:35 PM 14.0 °F -1.4 °F 1.4 °F 57% 30.28 in 10.0 mi NW 15.0 mph - N/A   Clear
5:55 PM 12.2 °F -1.8 °F 1.4 °F 62% 30.28 in 10.0 mi NW 11.5 mph - N/A   Clear
6:15 PM 12.2 °F -1.0 °F 1.4 °F 62% 30.28 in 10.0 mi NNW 10.4 mph - N/A   Clear
6:55 PM 10.4 °F -2.4 °F 1.4 °F 67% 30.30 in 10.0 mi NNW 9.2 mph - N/A   Clear
7:15 PM 10.4 °F -2.4 °F 1.4 °F 67% 30.30 in 10.0 mi NNW 9.2 mph - N/A   Clear
7:35 PM 10.4 °F -2.4 °F 1.4 °F 67% 30.30 in 10.0 mi NNW 9.2 mph - N/A   Clear
7:55 PM 10.4 °F -1.5 °F 1.4 °F 67% 30.31 in 10.0 mi NNW 8.1 mph - N/A   Clear
8:15 PM 10.4 °F -1.5 °F 1.4 °F 67% 30.31 in 10.0 mi NW 8.1 mph - N/A   Clear
8:35 PM 8.6 °F -1.3 °F 1.4 °F 73% 30.32 in 10.0 mi NNW 5.8 mph - N/A   Clear
8:55 PM 8.6 °F -2.6 °F 1.4 °F 73% 30.33 in 10.0 mi NW 6.9 mph - N/A   Clear
9:15 PM 8.6 °F -1.3 °F 1.4 °F 73% 30.33 in 10.0 mi NNW 5.8 mph - N/A   Clear
9:35 PM 5.0 °F -5.6 °F -0.4 °F 78% 30.34 in 10.0 mi NW 5.8 mph - N/A   Clear
9:55 PM 5.0 °F -5.6 °F -0.4 °F 78% 30.35 in 10.0 mi NNW 5.8 mph - N/A   Clear
10:15 PM 5.0 °F -5.6 °F -0.4 °F 78% 30.35 in 10.0 mi NNW 5.8 mph - N/A   Clear
10:35 PM 1.4 °F -9.9 °F -2.2 °F 85% 30.35 in 10.0 mi WNW 5.8 mph - N/A   Clear
10:55 PM 3.2 °F -4.2 °F -0.4 °F 85% 30.34 in 10.0 mi NW 3.5 mph - N/A   Clear
11:15 PM 1.4 °F -9.9 °F -2.2 °F 85% 30.34 in 10.0 mi NW 5.8 mph - N/A   Clear
11:35 PM 3.2 °F - -2.2 °F 78% 30.33 in 10.0 mi Calm Calm - N/A   Clear
11:55 PM 3.2 °F -7.8 °F -2.2 °F 78% 30.33 in 10.0 mi NW 5.8 mph - N/A   Clear